COSMOS 1275 DEB, 42211

Orbit data source: Space-Track

COSMOS 1275 DEB, 42211 is space debris in LEO originally from a launch on Thu, 04 Jun 1981 UTC launched from the Plesetsk Missile And Space Complex (PKMTR). Debris objects in space refer to the collection of defunct objects orbiting the Earth. Examples of debris include non-operational satellites, rocket bodies, and fragments generated from explosions, collisions, or faulty payload assembly.

Loading next visibility...
Identifier
42211, 1981-053UB
Orbit
LEO
Country
Flag of CISCIS
Related business
Manufacturer
Unknown
Mission
Spacecraft
Bus & Motor
Unknown
Mass
Unknown
Launch date (UTC)
1981-06-04 (45 years ago)
Launch vehicle
Unknown
Launch site
Plesetsk Missile And Space Complex (PKMTR)
Object type
Payload
Rocket body
Debris
Shape & HBR
Unknown shape, 0.1 m
Radar Cross Section
Small (<0.1 m²)

Expand to show TLE details & history
Last TLE update: 6 days ago

TLE from 6 days ago
0 COSMOS 1275 DEB
1 42211U 81053UB  26029.06332315  .00006356  00000-0  28116-2 0  9999
2 42211  82.8414 155.8579 0041482 297.3724  62.3240 14.22616708 83782
Epoch: 2026-01-29T01:31Z
TLE epoch observation values (Epoch: 2026-01-29T01:31:11.120Z)
Latitude
0.00003°
Longitude
4.74017°
Altitude
805.713 km
Speed
7.458 km/s
True Right ascension
10h 23m 25s
True Declination
0° 00' 00"
Sunlit
Object was in full shadow at epoch
Visualization orbit readout
Latitude
Unknown
Longitude
Unknown
Altitude
Unknown
Speed
Unknown
Apparent Right ascension
Unknown
Apparent Declination
Unknown
Sunlit
N/A
Visualization observer readout
Local Sidereal Time
16:50:01
Azimuth
Unknown
Elevation
Unknown
Doppler factor
Unknown
Orbital elements
Apogee altitude
843.437 km
Perigee altitude
783.771 km
Semi-major axis
7,191.741 km
Eccentricity
0.00415
Inclination
82.8414°
RAAN
155.8579°
Arg. of periapsis
297.3724°
True anomaly
62.74598°
Mean anomaly
62.324°
Eccentric anomaly
62.53489°
Mean motion
3.55871 °/min
Orbital period
101.16 mins
BSTAR
0.0028116
Loading maneuver chart data...
Computing Atmospheric mass density...
Loading historical data...
Loading historical data...
Loading historical data...
Loading historical data...
Loading historical data...
Loading historical data...
Loading historical data...

Documentation

Showing up to 5 results
|